TimeEST,TemperatureF,Dew PointF,Humidity,Sea Level PressureIn,VisibilityMPH,Wind Direction,Wind SpeedMPH,Gust SpeedMPH,PrecipitationIn,Events,Conditions,WindDirDegrees,DateUTC
12:53 AM,70.0,66.0,87,30.19,10.0,East,4.6,-,N/A,,Overcast,80,2013-01-09 05:53:00
1:53 AM,69.1,66.0,90,30.19,10.0,Calm,Calm,-,N/A,,Overcast,0,2013-01-09 06:53:00
2:53 AM,68.0,66.0,93,30.19,10.0,East,3.5,-,N/A,,Scattered Clouds,80,2013-01-09 07:53:00
3:53 AM,68.0,66.0,93,30.18,10.0,ENE,4.6,-,N/A,,Clear,60,2013-01-09 08:53:00
4:24 AM,68.0,66.2,94,30.18,10.0,ENE,4.6,-,N/A,,Mostly Cloudy,60,2013-01-09 09:24:00
4:32 AM,68.0,66.2,94,30.18,10.0,ENE,4.6,-,N/A,,Overcast,70,2013-01-09 09:32:00
4:53 AM,68.0,66.0,93,30.18,9.0,ENE,4.6,-,N/A,,Overcast,70,2013-01-09 09:53:00
5:06 AM,68.0,66.2,94,30.18,9.0,ENE,4.6,-,N/A,,Mostly Cloudy,70,2013-01-09 10:06:00
5:32 AM,68.0,66.2,94,30.19,8.0,ENE,4.6,-,N/A,,Overcast,70,2013-01-09 10:32:00
5:53 AM,68.0,66.9,96,30.19,8.0,ENE,3.5,-,N/A,,Overcast,60,2013-01-09 10:53:00
6:53 AM,68.0,66.9,96,30.21,7.0,East,3.5,-,N/A,,Overcast,80,2013-01-09 11:53:00
7:53 AM,69.1,66.9,93,30.23,6.0,East,5.8,-,N/A,,Mostly Cloudy,80,2013-01-09 12:53:00
8:38 AM,69.8,68.0,94,30.25,9.0,East,5.8,-,N/A,,Scattered Clouds,80,2013-01-09 13:38:00
8:53 AM,71.1,68.0,90,30.26,10.0,East,5.8,-,N/A,,Scattered Clouds,80,2013-01-09 13:53:00
9:05 AM,71.6,69.8,94,30.26,10.0,ESE,8.1,-,N/A,,Mostly Cloudy,110,2013-01-09 14:05:00
9:53 AM,73.9,69.1,85,30.28,10.0,East,6.9,-,N/A,,Mostly Cloudy,90,2013-01-09 14:53:00
10:53 AM,77.0,69.1,76,30.28,10.0,ESE,13.8,-,N/A,,Scattered Clouds,110,2013-01-09 15:53:00
11:53 AM,79.0,68.0,69,30.27,10.0,ESE,12.7,-,N/A,,Scattered Clouds,110,2013-01-09 16:53:00
12:53 PM,80.6,68.0,65,30.23,10.0,East,11.5,-,N/A,,Partly Cloudy,100,2013-01-09 17:53:00
1:53 PM,82.9,66.0,56,30.22,10.0,ESE,11.5,-,N/A,,Partly Cloudy,110,2013-01-09 18:53:00
2:53 PM,82.9,66.0,56,30.21,10.0,ENE,6.9,-,N/A,,Clear,60,2013-01-09 19:53:00
3:53 PM,81.0,66.0,60,30.21,10.0,NE,4.6,-,N/A,,Partly Cloudy,40,2013-01-09 20:53:00
4:53 PM,79.0,66.0,64,30.21,10.0,Calm,Calm,-,N/A,,Clear,0,2013-01-09 21:53:00
5:53 PM,77.0,64.9,66,30.21,10.0,East,4.6,-,N/A,,Clear,100,2013-01-09 22:53:00
6:53 PM,73.4,66.2,78,30.23,10.0,East,4.6,-,N/A,,Clear,100,2013-01-09 23:53:00
7:53 PM,75.0,64.0,69,30.24,10.0,ESE,9.2,-,N/A,,Clear,110,2013-01-10 00:53:00
8:53 PM,73.9,64.9,73,30.25,10.0,ESE,8.1,-,N/A,,Clear,110,2013-01-10 01:53:00
9:53 PM,72.0,66.9,84,30.28,10.0,East,3.5,-,N/A,,Clear,80,2013-01-10 02:53:00
10:53 PM,72.0,68.0,87,30.29,10.0,East,5.8,-,N/A,,Clear,100,2013-01-10 03:53:00
11:53 PM,71.1,68.0,90,30.30,10.0,East,5.8,-,N/A,,Clear,100,2013-01-10 04:53:00